Location: Winterland
(47.1574°N, 55.3067°W)
Time: 14:49:54
(UTC+00:00)

Tiangong - Pass Details

Date: 17 August 2022
Orbit: 377 x 382 km, 41.5° (Epoch: 27 September)

Event Time Altitude Azimuth Distance (km) Brightness Sun altitude
Rises 00:53:49 0° 242° (WSW) 2,232 1.9 -18.3°
Reaches altitude 10° 00:56:05 10° 228° (SW) 1,381 0.7 -18.5°
Enters shadow 00:56:33 13° 223° (SW) 1,226 0.4 -18.6°
